Regional Weather Roundup
Issued by NWS Upton, NY

Home | Current Version | Previous Version | Text Only | Print | Product List | Glossary On
Versions: 1 2 3 4 5 6 7 8 9 10 11 12 13 14 15 16 17 18 19 20 21 22 23 24 25 26 27 28 29 30 31 32 33 34 35 36 37 38 39 40 41 42 43 44 45 46 47 48 49 50
000
ASUS41 KOKX 312205
RWROKX

REGIONAL WEATHER ROUNDUP
NATIONAL WEATHER SERVICE NEW YORK NY
600 PM EDT THU JUL 31 2014

NOTE: "FAIR" INDICATES FEW OR NO CLOUDS BELOW 12,000 FEET WITH NO
SIGNIFICANT WEATHER AND/OR OBSTRUCTIONS TO VISIBILITY.

NYZ071-072-176-178-NJZ106-104-312300-
NEW YORK CITY METRO AREA


CITY           SKY/WX    TMP DP  RH WIND       PRES   REMARKS
CENTRAL PARK   PTSUNNY   79  62  56 VRB3      30.11S
LAGUARDIA APRT MOSUNNY   78  63  59 S15       30.08S
KENNEDY INTL   MOSUNNY   79  65  62 S20       30.10S
NEWARK/LIBERTY MOSUNNY   85  58  39 SW7       30.07R
BRNX BOT. GARD   N/A     77  63  61 S12       30.10R
TETERBORO      MOSUNNY   84  61  45 S10       30.06S
$$

NYZ177-179-078>081-312300-
LONG ISLAND NEW YORK

CITY           SKY/WX    TMP DP  RH WIND       PRES   REMARKS
FARMINGDALE    SUNNY     75  65  70 S13G22    30.11S
ISLIP          MOSUNNY   78  60  53 S13       30.10S
SHIRLEY        SUNNY     76  61  59 S16G23    30.12S
WESTHAMPTON    SUNNY     76  63  64 S15G21    30.13S
MONTAUK POINT    N/A     75  65  70 VRB6      30.14S
$$

NYZ052-065-067-312300-
HUDSON VALLEY

CITY           SKY/WX    TMP DP  RH WIND       PRES   REMARKS
WHITE PLAINS   MOSUNNY   77  61  57 S9        30.09S
NEWBURGH       MOSUNNY   79  61  53 W7        30.09S
MONTGOMERY     MOSUNNY   79  58  48 SW13      30.07S
POUGHKEEPSIE   MOSUNNY   79  60  52 CALM      30.06S
ALBANY         PTSUNNY   73  66  78 E6        30.06R
$$

NJZ001-105-106-008-010-013-015-019>022-104-312300-
NEW JERSEY

CITY           SKY/WX    TMP DP  RH WIND       PRES   REMARKS
NEWARK/LIBERTY MOSUNNY   85  58  39 SW7       30.07R
TETERBORO      MOSUNNY   84  61  45 S10       30.06S
CALDWELL       SUNNY     82  56  40 VRB5      30.08S
MORRISTOWN     MOSUNNY   84  57  39 W5        30.08R
SOMERVILLE     SUNNY     82  58  43 VRB3      30.06S
LINDEN         FAIR      85  59  41 S5        30.09S
SUSSEX         PTSUNNY   81  60  48 SW5       30.09R
ANDOVER          N/A     77  59  53 SW5       30.10R
TRENTON        SUNNY     82  59  45 SW7       30.08S
MILLVILLE      MOSUNNY   80  64  58 S9        30.10S
ATLANTIC CITY  MOSUNNY   78  64  61 S15       30.11S
WRIGHTSTOWN    SUNNY     83  62  48 SW13      30.06S
TOMS RIVER     MOSUNNY   81  64  57 S7        30.10R
BELMAR         PTSUNNY   79  64  61 SE9       30.09S
$$

PAZ047>061-062-071-312300-
EASTERN PENNSYLVANIA

CITY           SKY/WX    TMP DP  RH WIND       PRES   REMARKS
PHILADELPHIA   MOSUNNY   85  58  39 SW12      30.08F
ALLENTOWN      LGT RAIN  76  59  55 W3        30.10R
SCRANTON       PTSUNNY   78  55  44 SW10      30.10R
$$

CTZ002-004>006-009-010-012-RIZ004-006-007-MAZ004-011-015-312300-
SOUTHERN NEW ENGLAND
 IN CT

CITY           SKY/WX    TMP DP  RH WIND       PRES   REMARKS
BRADLEY INTL   PTSUNNY   80  57  45 SW10      30.06R
HARTFORD       PTSUNNY   78  57  48 S13G20    30.07S
DANBURY        MOSUNNY   76  59  55 S10       30.10S
WTRBRY/OXFORD  MOSUNNY   75  61  60 SW8G18    30.13R
BRIDGEPORT     SUNNY     79  61  53 S15       30.09S
MERIDEN        SUNNY     79  57  46 S10       30.09R
NEW HAVEN      MOSUNNY   79  63  57 S10       30.10S
CHESTER        FAIR      75  61  60 S7G16     30.12S
GROTON         SUNNY     73  65  75 S12       30.11S
WILLIMANTIC    SUNNY     79  58  48 S12       30.10R

 IN RI

CITY           SKY/WX    TMP DP  RH WIND       PRES   REMARKS
PROVIDENCE     MOSUNNY   77  55  46 S14       30.12R
BLOCK ISLAND   SUNNY     73  63  68 SW10      30.14S
WESTERLY       SUNNY     76  62  62 S12       30.13S

 IN MA

CITY           SKY/WX    TMP DP  RH WIND       PRES   REMARKS
BOSTON         MOSUNNY   78  58  49 S17       30.08R
WORCESTER      PTSUNNY   75  57  53 S14       30.11S
WESTFIELD      MOSUNNY   79  58  48 S13       30.06S
PROVINCETOWN   SUNNY     73  63  68 S15       30.12S
NANTUCKET      SUNNY     71  64  78 S8        30.15S
$$

ANZ330-335-338-340-345-350-353-355-312300-
COASTAL MARINE OBSERVATIONS


STATION/POSITION TIME  SKY/WX   TEMP    WIND        PRES    VSBY  WAVE
                                AIR SEA DIR/SP/G                  HT/PER
                 (UTC)          (F)     (DEG/KT/KT) (MB)    (MI)  (FT/S)
NY HARB ENTRANCE NOT AVBL
4S FIRE IS       NOT AVBL
23SW MTP         2200            74 72              1019.9          3/ 7
HUDSON CANYON    2200            75 76  200/ 10/ 12 1020.6          3/ 7
EXECUTION ROCKS  2200            77 71  180/ 16/ 19   N/A
WESTERN LI SOUND 2200            77     160/ 16/ 17   N/A           1
CENTRAL LI SOUND 2100            75 73  190/ 14/ 16   N/A           1/ 2
EASTERN LI SOUND 2100            71 68  180/  8/ 12   N/A
ROBBINS REEF     2200            74     160/ 19/ 21   N/A
$$


>>>>>>>>>>>>>>>>>>>>>>>>>>>> KEY <<<<<<<<<<<<<<<<<<<<<<<<<<<
>                                                          <
>     SKY/WX - SKY CONDITION/PRESENT WEATHER               <
>     TMP    - TEMPERATURE IN FAHRENHEIT                   <
>     DP     - DEWPOINT IN FAHRENHEIT                      <
>     RH     - RELATIVE HUMIDITY IN PERCENT                <
>     WIND   - DIRECTION AND SPEED IN MPH                  <
>     PRES   - MEAN SEA LEVEL PRESSURE IN INCHES OF HG     <
>     WCI    - WIND CHILL INDEX                            <
>     VSB    - VISIBILITY IN MILES                         <
>     HX     - HEAT INDEX                                  <
>     TC     - TEMPERATURE IN CELSIUS                      <
>     VRB    - VARIABLE WIND DIRECTION                     <
>                                                          <
>>>>>>>>>>>>>>>>>>>>>>>>>>>> KEY <<<<<<<<<<<<<<<<<<<<<<<<<<<





USA.gov is the U.S. government's official web portal to all federal, state and local government web resources and services.